Location: ???????
(55.3754°N, 39.3545°E)
Time: 21:21:32
(UTC+00:00)

Cosmos 921 Rocket - Pass Details

Date: 14 April 2026
Orbit: 563 x 620 km, 75.8° (Epoch: 11 May)

Event Time Altitude Azimuth Distance (km) Brightness Sun altitude
Rises 19:13:14 0° 338° (NNW) 2,912 8.0 -19.6°
Reaches altitude 10° 19:15:37 10° 346° (NNW) 1,999 6.7 -19.8°
Maximum altitude 19:19:49 39° 56° (NE) 939 3.9 -20.1°
Enters shadow 19:20:56 33° 90° (E) 1,047 3.9 -20.2°
